Terminal Aerodrome Forecast
Issued by NWS

Home | Current Version | Previous Version | Graphics & Text | Print | Product List | Glossary On
Versions: 1 2 3 4 5 6 7 8 9 10 11 12 13 14 15
000
FTUS43 KICT 122200 AAA
TAFRSL
TAF AMD
KRSL 122256Z 1223/1318 17013KT P6SM VCTS SCT060CB
      TEMPO 1301/1303 -TSRA BKN060CB
     FM130500 01010KT P6SM BKN120
     FM131400 34006KT P6SM BKN100=

USA.gov is the U.S. government's official web portal to all federal, state and local government web resources and services.